Flag for U.S.A. Weather past 2 weeks in Brattleboro, Vermont, U.S.A.

Now
84 °F

Passing clouds.


Feels Like: 85 °F
Forecast: 59 / 88 °F
Wind: 6 mph from Southwest

Location: Keene / Dillant

Current Time: Jul 22, 2014 at 4:25:41 PM

Latest Report: Jul 22, 2014 at 12:55 PM


Visibility: 7 mi

Pressure: 30.10 "Hg

Humidity: 48%

Dew point: 63 °F

Location of BrattleboroLocation

Historic Weather in Brattleboro — Graph

°F

Brattleboro temperature yesterday

Maximum temperature yesterday: 82 °F (at 2:55 PM)
Minimum temperature yesterday: 54 °F (at 4:35 AM)
Average temperature yesterday: 68 °F

Past Weeks' High & Low Weather Summary

 TemperatureHumidityPressure
High86 °F (Jul 8, 2:55 PM)82% (Jul 17, 5:55 AM)30.30 "Hg (Jul 17, 5:55 AM)
Low54 °F (Jul 11, 4:35 AM)34% (Jul 10, 2:55 PM)29.64 "Hg (Jul 8, 10:55 PM)
Average70 °F62%30.03 "Hg
* Reported Jul 7 12:15 PM — Jul 22 12:55 PM, Brattleboro, Weather by CustomWeather, © 2014

Note: Actual official high and low records may vary slightly from our data, if they occured in-between our weather recording intervals... More about our weather records

Advertising

Brattleboro weather history for previous 24 hours

 ConditionsComfort  
Time TempWeatherWind HumidityBarometerVisibility
12:55 PM
Jul 22
84 °FPassing clouds.6 mph48%30.10 "Hg7 mi
12:35 PM82 °FSunny.No wind51%30.11 "Hg8 mi
11:55 AM81 °FSunny.No wind54%30.13 "Hg10 mi
11:35 AM81 °FSunny.5 mph51%30.13 "Hg10 mi
11:15 AM81 °FSunny.3 mph51%30.14 "Hg10 mi
10:55 AM79 °FSunny.No wind54%30.14 "Hg10 mi
10:35 AM77 °FSunny.No wind57%30.14 "Hg10 mi
10:15 AM75 °FSunny.No wind57%30.14 "Hg10 mi
9:55 AM73 °FSunny.3 mph61%30.15 "Hg10 mi
9:35 AM72 °FSunny.No wind61%30.16 "Hg10 mi
9:15 AM72 °FSunny.No wind61%30.15 "Hg10 mi
8:55 AM72 °FSunny.5 mph61%30.16 "Hg10 mi
8:35 AM70 °FSunny.No wind60%30.17 "Hg10 mi
8:15 AM66 °FSunny.No wind68%30.17 "Hg10 mi
7:55 AM66 °FSunny.No wind68%30.18 "Hg10 mi
7:35 AM64 °FSunny.No wind68%30.18 "Hg10 mi
7:15 AM63 °FSunny.No wind73%30.17 "Hg10 mi
6:55 AM63 °FSunny.No wind73%30.16 "Hg10 mi
6:35 AM61 °FSunny.No wind72%30.17 "Hg10 mi
5:55 AM61 °FClear.No wind72%30.17 "Hg9 mi
5:35 AM61 °FClear.No wind77%30.17 "Hg8 mi
4:55 AM61 °FPassing clouds.No wind77%30.16 "Hg10 mi
4:35 AM63 °FPassing clouds.No wind73%30.16 "Hg10 mi
4:15 AM63 °FPassing clouds.No wind73%30.15 "Hg10 mi
3:55 AM63 °FPassing clouds.No wind73%30.15 "Hg10 mi
3:35 AM63 °FOvercast.No wind73%30.15 "Hg10 mi
3:15 AM63 °FOvercast.No wind73%30.15 "Hg10 mi
2:55 AM63 °FOvercast.No wind73%30.15 "Hg10 mi
2:35 AM63 °FOvercast.No wind73%30.16 "Hg10 mi
2:15 AM63 °FPassing clouds.No wind73%30.16 "Hg10 mi
1:55 AM63 °FOvercast.No wind73%30.16 "Hg10 mi
1:35 AM63 °FOvercast.No wind73%30.16 "Hg10 mi
1:15 AM63 °FPassing clouds.No wind73%30.17 "Hg10 mi
12:55 AM63 °FClear.3 mph73%30.17 "Hg10 mi
12:35 AM63 °FClear.No wind73%30.17 "Hg10 mi
12:15 AM63 °FClear.No wind73%30.17 "Hg10 mi
11:55 PM
Jul 21
63 °FClear.No wind73%30.17 "Hg10 mi
11:35 PM64 °FClear.No wind68%30.17 "Hg10 mi
10:55 PM64 °FClear.No wind68%30.17 "Hg10 mi
10:35 PM64 °FClear.No wind68%30.17 "Hg10 mi
10:15 PM66 °FPassing clouds.No wind64%30.17 "Hg10 mi
9:55 PM66 °FPassing clouds.No wind64%30.18 "Hg10 mi
9:35 PM68 °FPassing clouds.No wind64%30.17 "Hg10 mi
9:15 PM68 °FScattered clouds.No wind64%30.17 "Hg9 mi
8:55 PM70 °FSunny.No wind60%30.16 "Hg10 mi
8:35 PM72 °FSunny.3 mph57%30.16 "Hg10 mi
8:15 PM73 °FScattered clouds.6 mph53%30.16 "Hg10 mi
7:55 PM75 °FPartly sunny.5 mph54%30.15 "Hg10 mi
7:35 PM75 °FPartly sunny.7 mph54%30.15 "Hg10 mi
7:15 PM79 °FPartly sunny.7 mph45%30.15 "Hg10 mi
6:55 PM79 °FScattered clouds.3 mph48%30.14 "Hg10 mi
6:35 PM81 °FSunny.5 mph42%30.14 "Hg10 mi
6:15 PM81 °FPassing clouds.3 mph42%30.14 "Hg10 mi
5:55 PM81 °FPassing clouds.5 mph42%30.14 "Hg10 mi
5:35 PM81 °FPassing clouds.5 mph42%30.14 "Hg10 mi
5:15 PM81 °FSunny.5 mph42%30.14 "Hg10 mi
4:55 PM81 °FSunny.5 mph42%30.14 "Hg10 mi
4:35 PM81 °FPassing clouds.5 mph42%30.14 "Hg10 mi
4:15 PM81 °FPassing clouds.7 mph42%30.14 "Hg10 mi
Weather by CustomWeather, © 2014

See weather overviewHow to use our weather pages